When you browse on this site, cookies collect data to enhance your experience and personalize the content and advertising you see.
Visit our Privacy Policy to learn more. By continuing to use the site, you agree to this use of cookies and data.
  • In Romania
  • List of Countries
  • For 7 days
  • Water Temperature
  • Satellite Maps
  • Weather Map
  • Weather Widgets
  • user-avatar
    Login

    Hourly Weather Tskhaltubo

    Today, 26 May, Sunday

    Time Temperature Precipitation Wind Pressure Humidity
    00:00 +16°C° 0 mm 0 mps 744 mmHg 97%
    01:00 +16°C° 0 mm 1 mps 744 mmHg 96%
    02:00 +16°C° 0 mm 1 mps 744 mmHg 94%
    03:00 +16°C° 0 mm 2 mps 743 mmHg 92%
    04:00 +16°C° 0 mm 1 mps 743 mmHg 90%
    05:00 +16°C° 0 mm 1 mps 743 mmHg 88%
    06:00 +18°C° 0 mm 1 mps 744 mmHg 86%
    07:00 +20°C° 0.1 mm 1 mps 743 mmHg 79%
    08:00 +22°C° 0.1 mm 1 mps 743 mmHg 71%
    09:00 +24°C° 0.1 mm 1 mps 743 mmHg 64%
    10:00 +24°C° 0.3 mm 2 mps 743 mmHg 62%
    11:00 +25°C° 0.3 mm 3 mps 743 mmHg 60%
    12:00 +26°C° 0.3 mm 3 mps 743 mmHg 58%
    13:00 +25°C° 0.8 mm 3 mps 743 mmHg 63%
    14:00 +24°C° 0.8 mm 3 mps 744 mmHg 69%
    15:00 +24°C° 0.8 mm 3 mps 744 mmHg 74%
    16:00 +22°C° 0.7 mm 3 mps 744 mmHg 77%
    17:00 +21°C° 0.7 mm 3 mps 744 mmHg 80%
    18:00 +20°C° 0.7 mm 3 mps 745 mmHg 83%
    19:00 +19°C° 0.2 mm 2 mps 745 mmHg 88%
    20:00 +18°C° 0.2 mm 1 mps 746 mmHg 92%
    21:00 +16°C° 0.2 mm 1 mps 746 mmHg 96%
    22:00 +16°C° 0.1 mm 1 mps 746 mmHg 96%
    23:00 +14°C° 0.1 mm 0 mps 747 mmHg 95%

    Tomorrow, 27 May, Monday

    Time Temperature Precipitation Wind Pressure Humidity
    00:00 +14°C° 0.1 mm 0 mps 747 mmHg 95%
    01:00 +14°C° 0 mm 0 mps 747 mmHg 94%
    02:00 +14°C° 0 mm 1 mps 747 mmHg 93%
    03:00 +14°C° 0 mm 1 mps 747 mmHg 93%
    04:00 +14°C° 0 mm 1 mps 747 mmHg 91%
    05:00 +15°C° 0 mm 1 mps 747 mmHg 89%
    06:00 +15°C° 0 mm 1 mps 747 mmHg 87%
    07:00 +18°C° 0 mm 1 mps 747 mmHg 79%
    08:00 +20°C° 0 mm 1 mps 747 mmHg 71%
    09:00 +22°C° 0 mm 1 mps 747 mmHg 63%
    10:00 +23°C° 0 mm 1 mps 747 mmHg 59%
    11:00 +24°C° 0 mm 2 mps 747 mmHg 56%
    12:00 +25°C° 0 mm 2 mps 746 mmHg 52%
    13:00 +25°C° 0 mm 3 mps 746 mmHg 52%
    14:00 +26°C° 0 mm 3 mps 746 mmHg 53%
    15:00 +26°C° 0 mm 3 mps 746 mmHg 53%
    16:00 +25°C° 0 mm 3 mps 746 mmHg 58%
    17:00 +24°C° 0 mm 2 mps 746 mmHg 63%
    18:00 +23°C° 0 mm 2 mps 747 mmHg 68%
    19:00 +20°C° 0 mm 2 mps 747 mmHg 76%
    20:00 +19°C° 0 mm 1 mps 748 mmHg 83%
    21:00 +15°C° 0 mm 0 mps 748 mmHg 91%
    22:00 +16°C° 0 mm 1 mps 748 mmHg 91%
    23:00 +16°C° 0 mm 1 mps 748 mmHg 90%

    Day after tomorrow, 28 May, Tuesday

    Time Temperature Precipitation Wind Pressure Humidity
    00:00 +16°C° 0 mm 1 mps 748 mmHg 90%
    01:00 +16°C° 0 mm 2 mps 748 mmHg 88%
    02:00 +15°C° 0 mm 2 mps 748 mmHg 86%
    03:00 +15°C° 0 mm 2 mps 748 mmHg 85%
    04:00 +16°C° 0 mm 2 mps 747 mmHg 82%
    05:00 +16°C° 0 mm 2 mps 747 mmHg 79%
    06:00 +17°C° 0 mm 2 mps 747 mmHg 76%
    07:00 +19°C° 0 mm 2 mps 747 mmHg 67%
    08:00 +23°C° 0 mm 2 mps 747 mmHg 59%
    09:00 +26°C° 0 mm 2 mps 747 mmHg 51%
    10:00 +27°C° 0 mm 2 mps 747 mmHg 47%
    11:00 +28°C° 0 mm 1 mps 746 mmHg 43%
    12:00 +30°C° 0 mm 1 mps 746 mmHg 39%
    13:00 +29°C° 0 mm 2 mps 746 mmHg 39%
    14:00 +29°C° 0 mm 2 mps 746 mmHg 40%
    15:00 +29°C° 0 mm 3 mps 745 mmHg 41%
    16:00 +28°C° 0 mm 2 mps 745 mmHg 49%
    17:00 +27°C° 0 mm 2 mps 745 mmHg 56%
    18:00 +26°C° 0 mm 1 mps 745 mmHg 64%
    19:00 +23°C° 0 mm 1 mps 746 mmHg 69%
    20:00 +20°C° 0 mm 2 mps 746 mmHg 74%
    21:00 +18°C° 0 mm 2 mps 747 mmHg 79%
    22:00 +18°C° 0 mm 2 mps 747 mmHg 76%
    23:00 +18°C° 0 mm 2 mps 747 mmHg 73%

    29 May, Wednesday

    Time Temperature Precipitation Wind Pressure Humidity
    00:00 +18°C° 0 mm 2 mps 747 mmHg 70%
    01:00 +18°C° 0 mm 3 mps 746 mmHg 67%
    02:00 +18°C° 0 mm 3 mps 746 mmHg 63%
    03:00 +18°C° 0 mm 3 mps 746 mmHg 59%
    04:00 +18°C° 0 mm 3 mps 746 mmHg 60%
    05:00 +18°C° 0 mm 3 mps 746 mmHg 60%
    06:00 +18°C° 0 mm 3 mps 746 mmHg 61%
    07:00 +21°C° 0 mm 4 mps 745 mmHg 56%
    08:00 +23°C° 0 mm 4 mps 745 mmHg 51%
    09:00 +27°C° 0 mm 4 mps 745 mmHg 46%
    10:00 +28°C° 0 mm 4 mps 744 mmHg 42%
    11:00 +30°C° 0 mm 4 mps 744 mmHg 38%
    12:00 +32°C° 0 mm 4 mps 744 mmHg 34%
    13:00 +33°C° 0 mm 4 mps 744 mmHg 33%
    14:00 +33°C° 0 mm 3 mps 743 mmHg 33%
    15:00 +34°C° 0 mm 3 mps 743 mmHg 32%
    16:00 +32°C° 0 mm 2 mps 743 mmHg 39%
    17:00 +30°C° 0 mm 1 mps 743 mmHg 46%
    18:00 +29°C° 0 mm 1 mps 743 mmHg 54%
    19:00 +27°C° 0 mm 1 mps 744 mmHg 58%
    20:00 +25°C° 0 mm 2 mps 744 mmHg 61%
    21:00 +21°C° 0 mm 2 mps 745 mmHg 65%
    22:00 +21°C° 0 mm 2 mps 745 mmHg 65%
    23:00 +21°C° 0 mm 2 mps 745 mmHg 64%

    30 May, Thursday

    Time Temperature Precipitation Wind Pressure Humidity
    00:00 +20°C° 0 mm 3 mps 745 mmHg 64%
    01:00 +20°C° 0 mm 3 mps 745 mmHg 63%
    02:00 +20°C° 0 mm 3 mps 745 mmHg 62%
    03:00 +20°C° 0 mm 3 mps 744 mmHg 61%
    04:00 +20°C° 0 mm 3 mps 744 mmHg 62%
    05:00 +20°C° 0 mm 3 mps 744 mmHg 63%
    06:00 +20°C° 0 mm 3 mps 744 mmHg 64%
    07:00 +24°C° 0 mm 3 mps 744 mmHg 58%
    08:00 +26°C° 0 mm 3 mps 744 mmHg 52%
    09:00 +29°C° 0 mm 3 mps 744 mmHg 46%
    10:00 +30°C° 0 mm 3 mps 743 mmHg 42%
    11:00 +32°C° 0 mm 2 mps 743 mmHg 38%
    12:00 +34°C° 0 mm 2 mps 743 mmHg 34%
    13:00 +34°C° 0 mm 2 mps 743 mmHg 34%
    14:00 +34°C° 0 mm 2 mps 743 mmHg 33%
    15:00 +34°C° 0 mm 2 mps 742 mmHg 32%
    16:00 +32°C° 0 mm 2 mps 742 mmHg 40%
    17:00 +31°C° 0 mm 1 mps 742 mmHg 47%
    18:00 +29°C° 0 mm 1 mps 743 mmHg 54%
    19:00 +27°C° 0 mm 1 mps 743 mmHg 57%
    20:00 +25°C° 0 mm 1 mps 743 mmHg 61%
    21:00 +23°C° 0 mm 1 mps 744 mmHg 64%
    22:00 +21°C° 0 mm 2 mps 744 mmHg 64%
    23:00 +21°C° 0 mm 2 mps 744 mmHg 64%

    31 May, Friday

    Time Temperature Precipitation Wind Pressure Humidity
    00:00 +21°C° 0 mm 2 mps 744 mmHg 63%
    01:00 +21°C° 0 mm 2 mps 744 mmHg 62%
    02:00 +20°C° 0 mm 2 mps 744 mmHg 60%
    03:00 +20°C° 0 mm 2 mps 744 mmHg 58%
    04:00 +20°C° 0 mm 3 mps 744 mmHg 59%
    05:00 +21°C° 0 mm 3 mps 743 mmHg 61%
    06:00 +21°C° 0 mm 3 mps 743 mmHg 62%
    07:00 +24°C° 0 mm 3 mps 743 mmHg 57%
    08:00 +27°C° 0 mm 3 mps 743 mmHg 51%
    09:00 +29°C° 0 mm 3 mps 743 mmHg 46%
    10:00 +30°C° 0 mm 3 mps 742 mmHg 43%
    11:00 +33°C° 0 mm 3 mps 742 mmHg 39%
    12:00 +34°C° 0 mm 3 mps 742 mmHg 36%
    13:00 +34°C° 0 mm 2 mps 741 mmHg 36%
    14:00 +35°C° 0 mm 2 mps 741 mmHg 35%
    15:00 +35°C° 0 mm 2 mps 741 mmHg 35%
    16:00 +31°C° 0 mm 2 mps 741 mmHg 44%
    17:00 +29°C° 0 mm 2 mps 741 mmHg 53%
    18:00 +27°C° 0 mm 3 mps 741 mmHg 62%
    19:00 +25°C° 0 mm 2 mps 742 mmHg 68%
    20:00 +23°C° 0 mm 2 mps 742 mmHg 74%
    21:00 +21°C° 0 mm 1 mps 743 mmHg 80%
    22:00 +21°C° 0.1 mm 1 mps 742 mmHg 79%
    23:00 +21°C° 0.1 mm 1 mps 742 mmHg 78%
    Show more